INTELSAT 29E

Satellite information

Favourite Embed

Satellite Type and Status

PAYLOADIN ORBIT

Key statistics

Satellite INTELSAT 29E at a glance.

Uptime

3511

Days in orbit

Revolutions

≈ 1.0

Per day

Orbit

OTHER

Other

Inclination

5.8

Latest

Satellite identification and parameters

Extended collection of information and parameters for INTELSAT 29E.

Object identification

Identified? True

Debris? False

Object name: INTELSAT 29E

International designator: 2016-004A

Object number (NORAD): 41308

Object ID (CCSDS): 41308

Country: INTERNATIONAL TELECOMMUNICATIONS SATELLITE ORGANIZATION (INTELSAT) (ITSO)

Current information (Y/N): Y

RCS size: LARGE

Orbital parameters

Period: 1431.221 minutes

Inclination: 5.7826 deg

SMA: 42069.241 km

Apoapsis: 35709.293 km

Periapsis: 35672.92 km

RAAN: 73.7423 deg

Eccentricy: 0.0004323

Argument of periapsis: 81.6091 deg

Mean anomaly: 124.5107 deg

Mean motion: 1.0061338 rev/day

Mean motion (dot): 0.00000072 rev/day2

B* drag term: 0.0 1/REarth

Two-line elements (TLE)

Creation date: Sept. 7, 2025, 3:09 a.m.

Reference frame: TEME

Reference center: EARTH

Epoch: Sept. 6, 2025, 7:21 p.m. UTC

TLE line 0: 0 INTELSAT 29E

TLE line 1: 1 41308U 16004A 25249.80690536 .00000072 00000-0 00000-0 0 9995

TLE line 2: 2 41308 5.7826 73.7423 0004323 81.6091 124.5107 1.00613380 35425

Live tracking on map

Real-time ground track for satellite INTELSAT 29E.

In-orbit conjunctions

There are no conjunctions computed for INTELSAT 29E, at the moment. Check back to stay up to date, as we update our databases every day.

Go to all conjunctions

Associated space launch

Covering North and South America Intelsat 29e will provide high bandwidth C and Ku-Band services for fixed and mobile customers. The satellite will be located at 50 degrees west in a geostationary orbit for its operational lifespan of 15 years. With over 3000kg of propellant the craft will weigh 6300kg when launched and will have 2 solar arrays to provide power. Intelsat 29e will launch on the Ariane 5 on its own, as no suitable secondary payload could be found

INTELSAT 29E was lifted into orbit during the mission ‘Ariane 5 ECA | Intelsat 29e’, on board a Ariane 5 ECA space rocket.

The launch took place on Jan. 27, 2016, 11:20 p.m. from Ariane Launch Area 3.

For more information about the launch, click the button.

Launch to space Ariane 5 ECA | Intelsat 29e
Ariane 5 ECA | Intelsat 29e

Agency: N/A

Status: Launch Successful

Launch date: Jan. 27, 2016, 11:20 p.m. UTC

Rocket: Ariane 5 ECA

Launch pad: Ariane Launch Area 3

Location: Guiana Space Centre, French Guiana

...

Latest news about this satellite

There are no fresh news available about this satellite. Check back as we update our databases every day.


Newsletter sign-up

Weekly statistics, charts and insights to help you stay on top of the space industry.